Location: Ermatingen
(47.6706°N, 9.0857°E)
Time: 06:17:50
(UTC+00:00)

Cosmos 2285 Rocket - Pass Details

Date: 18 September 2020
Orbit: 970 x 1000 km, 74.0° (Epoch: 22 October)

Event Time Altitude Azimuth Distance (km) Brightness Sun altitude
Rises 19:32:09 0° 187° (S) 3,650 6.8 -20.8°
Reaches altitude 10° 19:34:42 10° 184° (S) 2,709 6.1 -21.1°
Maximum altitude 19:40:51 60° 106° (ESE) 1,110 3.9 -22.0°
Drops below altitude 10° 19:47:04 10° 29° (NNE) 2,744 6.4 -23.0°
Sets 19:49:40 0° 26° (NNE) 3,700 7.1 -23.3°
